Location: Allos
(44.2333°N, 6.6333°E)
Time: 01:38:28
(UTC+00:00)

Cosmos 1689 Rocket - Visible Passes

Search period start: 17 April 2021 00:00
Search period end: 27 April 2021 00:00
Orbit: 350 x 361 km, 97.5° (Epoch: 16 April)

Date Brightness Start Highest point End Pass type
(mag) Time Alt. Az. Time Alt. Az. Time Alt. Az.
18 Apr 3.3 18:59:39 10° N 19:02:23 44° WNW 19:05:05 10° SSW visible
19 Apr 5.2 19:27:16 10° NNW 19:29:20 18° WNW 19:31:22 10° WSW visible
22 Apr 4.6 19:17:10 10° NNW 19:19:35 25° WNW 19:21:58 10° SW visible
23 Apr 5.7 19:45:15 10° NW 19:46:20 12° WNW 19:47:24 10° W visible
25 Apr 3.8 19:06:53 10° N 19:09:32 36° WNW 19:12:09 10° SW visible
26 Apr 5.3 19:34:24 10° NNW 19:36:14 16° WNW 19:38:04 10° WSW visible
